Regional Weather Roundup
Issued by NWS Cleveland, OH

Home | Current Version | Previous Version | Text Only | Print | Product List | Glossary Off
Versions: 1 2 3 4 5 6 7 8 9 10 11 12 13 14 15 16 17 18 19 20 21 22 23 24 25 26 27 28 29 30 31 32 33 34 35 36 37 38 39 40 41 42 43 44 45 46 47 48 49 50

000
ASUS41 KCLE 301902
RWRCLE
OHIO REGIONAL WEATHER ROUNDUP
NATIONAL WEATHER SERVICE CLEVELAND, OH
300 PM EDT MON MAR 30 2015

NOTE: "FAIR" INDICATES FEW OR NO CLOUDS BELOW 12,000 FEET WITH NO
SIGNIFICANT WEATHER AND/OR OBSTRUCTIONS TO VISIBILITY.

OHZ001>008-015>018-024>027-034-035-043-044-302000-
   NORTHWEST OHIO

CITY           SKY/WX    TMP DP  RH WIND       PRES   REMARKS
DEFIANCE       MOSUNNY   57  23  26 W18G28    29.97F
FINDLAY        MOSUNNY   56  26  31 W24G33    29.97F
TOLEDO EXPRESS MOSUNNY   53  22  29 NW18G31   29.94F
TOLEDO EXEC    PTSUNNY   57  24  28 NW26G35   29.95S
LIMA           MOSUNNY   55  31  39 W17G29    30.00F
$$

OHZ009>014-019>023-028>033-038-089-302000-
   NORTHEAST OHIO

CITY           SKY/WX    TMP DP  RH WIND       PRES   REMARKS
CLE-HOPKINS    MOSUNNY   51  25  36 W22G30    29.95F
CLE-LAKEFRONT  MOSUNNY   48  31  51 W15       29.92F
CUY CO. ARPT   MOSUNNY   54  27  35 W17G29    29.93F
LORAIN-ELYRIA  PTSUNNY   51  27  39 W20G31    29.94F
ASHTABULA      SUNNY     48  27  44 W25G33    29.89F
AKRON-CANTON   PTSUNNY   51  26  37 W14G24    29.95F
WOOSTER        MOSUNNY   51  32  48 W20G28    29.96F
MANSFIELD      PTSUNNY   52  29  41 W16G28    29.97F
YOUNGSTOWN     PTSUNNY   50  24  36 W18G26    29.90F
$$

OHZ042-051>053-060>062-070>072-077>081-302000-
  SOUTHWEST OHIO

CITY           SKY/WX    TMP DP  RH WIND       PRES   REMARKS
CINC-COVINGTON MOSUNNY   58  27  30 W14       30.09F
CINC-LUNKEN    MOSUNNY   58  30  34 NW13      30.10F
HAMILTON       SUNNY     58  29  33 W12G24    30.09F
DAYTON         MOSUNNY   56  27  32 W18G26    30.05F
WRIGHT-PAT AFB NOT AVBL
DAYTON GENERAL MOSUNNY   56  27  32 NW12G22   30.05F
WILMINGTON     MOSUNNY   54  27  35 NW13G24   30.06F
$$

OHZ036-037-039>041-045>050-054>059-063>069-073>076-082>088-302000-
  CENTRAL AND SOUTHEAST OHIO

CITY           SKY/WX    TMP DP  RH WIND       PRES   REMARKS
COLUMBUS       MOSUNNY   55  28  35 W18G29    30.02F
OSU AIRPORT    MOSUNNY   55  28  35 W18G29    30.01F
BOLTON FIELD   PTSUNNY   54  32  43 W15G24    30.04F
RICKENBACK AFB NOT AVBL
NEWARK         PTSUNNY   53  29  39 W14G26    30.00F
MARION         MOSUNNY   54  27  35 NW21G26   30.00F
LANCASTER      MOSUNNY   55  30  38 W13G25    30.04F
ZANESVILLE     MOSUNNY   53  27  36 W16G24    30.00F
NEW PHILLY     MOSUNNY   53  25  33 W12       29.98F
$$


USA.gov is the U.S. government's official web portal to all federal, state and local government web resources and services.